Flag for Cote d'Ivoire (Ivory Coast) Weather past 2 weeks in Abidjan, Cote d'Ivoire (Ivory Coast)

88 °F

Scattered clouds.

Feels Like: 102 °F
Forecast: 78 / 89 °F
Wind: 12 mph from Southwest

Location: Abidjan Airport

Current Time: Dec 1, 2015 at 11:50:58 AM

Latest Report: Dec 1, 2015 at 11:30 AM

Visibility: N/A

Pressure: 29.92 "Hg

Humidity: 75%

Dew point: 79 °F

Location of AbidjanLocation

Historic Weather in Abidjan — Graph


Abidjan temperature yesterday

Maximum temperature yesterday: 88 °F (at 11:00 AM)
Minimum temperature yesterday: 81 °F (at 2:30 AM)
Average temperature yesterday: 84 °F

Past Weeks' High & Low Weather Summary

High88 °F (Nov 16, 12:00 PM)100% (Nov 17, 9:30 AM)29.98 "Hg (Nov 17, 9:30 AM)
Low73 °F (Nov 18, 4:30 AM)66% (Nov 24, 11:00 AM)29.71 "Hg (Nov 22, 3:30 PM)
Average82 °F86%29.85 "Hg
* Reported Nov 16 11:00 AM — Dec 1 11:00 AM, Abidjan, Weather by CustomWeather, © 2015

Note: Actual official high and low records may vary slightly from our data, if they occured in-between our weather recording intervals... More about our weather records


Abidjan weather history for previous 24 hours

Time TempWeatherWind HumidityBarometerVisibility
11:00 AM
Tue, Dec 1
88 °FScattered clouds.10 mph75%29.92 "HgN/A
10:30 AM86 °FScattered clouds.9 mph79%29.95 "HgN/A
10:00 AM86 °FScattered clouds.12 mph79%29.95 "HgN/A
9:30 AM86 °FScattered clouds.10 mph79%29.95 "HgN/A
9:00 AM86 °FScattered clouds.9 mph79%29.95 "HgN/A
8:00 AM84 °FScattered clouds.8 mph79%29.92 "Hg5 mi
7:30 AM82 °FScattered clouds.7 mph89%29.92 "Hg5 mi
7:00 AM82 °FScattered clouds.7 mph89%29.92 "Hg5 mi
6:00 AM82 °FPassing clouds.6 mph84%29.89 "Hg5 mi
5:30 AM82 °FPassing clouds.8 mph84%29.89 "HgN/A
5:00 AM82 °FPassing clouds.8 mph84%29.89 "HgN/A
4:00 AM82 °FPassing clouds.7 mph89%29.89 "HgN/A
3:30 AM82 °FPassing clouds.8 mph89%29.89 "HgN/A
3:00 AM82 °FPassing clouds.7 mph89%29.89 "HgN/A
2:30 AM82 °FPassing clouds.7 mph89%29.89 "HgN/A
2:00 AM82 °FPassing clouds.7 mph89%29.89 "HgN/A
1:00 AM82 °FPassing clouds.8 mph89%29.92 "HgN/A
12:00 AM84 °FPassing clouds.12 mph84%29.92 "HgN/A
11:00 PM
Mon, Nov 30
82 °FPassing clouds.7 mph89%29.92 "HgN/A
10:30 PM82 °FPassing clouds.8 mph89%29.92 "HgN/A
10:00 PM82 °FPassing clouds.6 mph84%29.92 "HgN/A
9:30 PM84 °FPassing clouds.7 mph84%29.92 "HgN/A
9:00 PM82 °FPassing clouds.5 mph89%29.92 "HgN/A
8:30 PM84 °FPassing clouds.6 mph79%29.92 "HgN/A
8:00 PM84 °FThunderstorms. Passing clouds.7 mph84%29.89 "HgN/A
7:30 PM82 °FThunderstorms. Passing clouds.6 mph89%29.89 "HgN/A
7:00 PM84 °FThunderstorms. Passing clouds.8 mph79%29.89 "HgN/A
6:30 PM84 °FThunderstorms. Passing clouds.7 mph84%29.86 "HgN/A
6:00 PM84 °FPassing clouds.8 mph84%29.86 "HgN/A
5:30 PM84 °FScattered clouds.9 mph84%29.86 "HgN/A
5:00 PM86 °FScattered clouds.8 mph79%29.86 "HgN/A
4:30 PM86 °FScattered clouds.9 mph79%29.86 "HgN/A
4:00 PM88 °FScattered clouds.10 mph75%29.86 "HgN/A
3:30 PM88 °FScattered clouds.9 mph75%29.86 "HgN/A
3:00 PM88 °FScattered clouds.10 mph75%29.86 "HgN/A
2:30 PM88 °FScattered clouds.12 mph75%29.86 "HgN/A
2:00 PM88 °FScattered clouds.12 mph75%29.89 "Hg5 mi
1:30 PM88 °FScattered clouds.13 mph75%29.92 "Hg5 mi
1:00 PM88 °FScattered clouds.14 mph75%29.92 "Hg5 mi
12:30 PM88 °FScattered clouds.13 mph75%29.92 "Hg5 mi
12:00 PM86 °FScattered clouds.10 mph79%29.92 "Hg5 mi
11:30 AM86 °FScattered clouds.12 mph79%29.95 "Hg5 mi
11:00 AM88 °FScattered clouds.9 mph70%29.95 "Hg5 mi
Weather by CustomWeather, © 2015

See weather overviewHow to use our weather pages